Regional Weather Roundup
Issued by NWS Memphis, TN

Home | Current Version | Previous Version | Text Only | Print | Product List | Glossary On
Versions: 1 2 3 4 5 6 7 8 9 10 11 12 13 14 15 16 17 18 19 20 21 22 23 24 25 26 27 28 29 30 31 32 33 34 35 36 37 38 39 40 41 42 43 44 45 46 47 48 49 50
000
ASUS44 KMEG 231710
RWRMEG
MEMPHIS CWA HOURLY WEATHER ROUNDUP
NATIONAL WEATHER SERVICE MEMPHIS TN
1200 PM CDT SAT AUG 23 2014

...WEST TENNESSEE...

CITY           SKY/WX    TMP DP  RH WIND       PRES   REMARKS
MEMPHIS INTL   SUNNY     94  72  48 VRB3      30.01F HX 102
NWS MEMPHIS      N/A     92 N/A N/A MISG        N/A
JACKSON        SUNNY     90  76  63 W5        30.01F HX 101
LEXINGTON      SUNNY     93  73  52 W6        30.01S HX 102
SAVANNAH       SUNNY     90  77  66 NW5       30.03F HX 102
DYERSBURG      SUNNY     91  72  52 CALM      30.00F HX  98
UNION CITY     PTSUNNY   91  81  70 W3        29.99S HX 110
PARIS          SUNNY     90  77  66 SW6       30.01F HX 102
HUNTINGDON     SUNNY     88  77  69 VRB3      30.00F HX 100


...EASTERN ARKANSAS...

CITY           SKY/WX    TMP DP  RH WIND       PRES   REMARKS
JONESBORO      SUNNY     94  72  48 N6        29.99F HX 102
WEST MEMPHIS   SUNNY     92  76  59 NW6       29.99F HX 104
BATESVILLE     SUNNY     93  72  49 W6        30.00F HX 100
NEWPORT        SUNNY     94  75  53 NW5       30.01F HX 105
WALNUT RIDGE   SUNNY     90  73  58 N7        29.98S HX  98
BLYTHEVILLE    SUNNY     91  80  70 SW5       29.99F HX 109
SEARCY           N/A     94  74  52 CALM        N/A  HX 104
STUTTGART      SUNNY     91  75  59 W7        30.03S HX 102
PINE BLUFF     SUNNY     90  72  55 W8        30.03S HX  97
MONTICELLO     SUNNY     90  74  59 SW7       30.04S HX  99


...NORTH MISSISSIPPI...

CITY           SKY/WX    TMP DP  RH WIND       PRES   REMARKS
TUPELO         MOSUNNY   92  72  51 NW8       30.03F HX  99
OLIVE BRANCH   SUNNY     91  73  55 N8        30.02F HX 100
CLARKSDALE     SUNNY     90  77  66 CALM      30.04S HX 102
CORINTH        MOSUNNY   91  73  55 W7        30.02F HX 100
GRENADA        MOSUNNY   90  72  55 NW3       30.04S HX  96
GREENWOOD      MOSUNNY   89  72  56 NW6       30.04S HX  96
COLUMBUS       SUNNY     92  70  48 VRB7      30.03F HX  97
STARKVILLE     FAIR      90  68  48 W5        30.04S HX  93
GOLDEN TRIANGL MOSUNNY   95  70  43 NW5       30.04F HX 101


...SOUTHEAST MISSOURI...

CITY           SKY/WX    TMP DP  RH WIND       PRES   REMARKS
WEST PLAINS    SUNNY     91  70  49 VRB5      30.04F HX  96
POPLAR BLUFF   SUNNY     93  71  48 S6        29.97F HX 100
CAPE GIRARDEAU SUNNY     90  78  68 S3        29.97F HX 104


...NORTHWEST ALABAMA...

CITY           SKY/WX    TMP DP  RH WIND       PRES   REMARKS
MUSCLE SHOALS  PTSUNNY   88  75  65 NW6       30.04F HX  97


...MIDDLE TENNESSEE...

CITY           SKY/WX    TMP DP  RH WIND       PRES   REMARKS
NASHVILLE      PTSUNNY   92  73  53 VRB5      30.03S HX 100
CLARKSVILLE    PTSUNNY   89  79  72 S6        29.99F HX 104
DICKSON        PTSUNNY   84  75  74 W7        30.03F HX  92
COLUMBIA       SUNNY     90  79  70 N5        30.02F HX 105
LEWISBURG      MOSUNNY   88  74  63 VRB3      30.04S HX  96


...WESTERN KENTUCKY...

CITY           SKY/WX    TMP DP  RH WIND       PRES   REMARKS
PADUCAH        PTSUNNY   87  78  74 CALM      29.98F HX 100
FORT CAMPBELL  PTSUNNY   90  79  69 W10       29.99F HX 105


...CENTRAL ARKANSAS...

CITY           SKY/WX    TMP DP  RH WIND       PRES   REMARKS
LITTLE ROCK    SUNNY     93  71  48 S7        30.02S HX 100


SKY/WX REPORTED AS FAIR MEANS FEW OR NO CLOUDS BELOW
12 THOUSAND FEET.



USA.gov is the U.S. government's official web portal to all federal, state and local government web resources and services.